EB5ETD Weather Reports


Display with metric or nautical units.
time (UTC)temp
F
wind
direction
speed
MPH
gust
MPH
rain 1hr
in
rain 24hr
in
rain mn
in
humidity
%
barometer
mb
20260505223504 58 58 0.0 5.0 0.00 0.00 0.00 64 1019.8
20260505223003 57 84 2.0 3.0 0.00 0.00 0.00 66 1019.9
20260505222504 58 41 3.0 6.0 0.00 0.00 0.00 65 1019.9
20260505222004 58 54 2.0 5.0 0.00 0.00 0.00 65 1019.4
20260505221003 57 227 2.0 3.0 0.00 0.00 0.00 63 1019.8
20260505220504 57 212 0.0 1.0 0.00 0.00 0.00 67 1019.5
20260505220004 57 212 1.0 2.0 0.00 0.00 0.00 67 1019.6
20260505215503 57 204 1.0 2.0 0.00 0.00 0.00 66 1019.7
20260505215004 58 218 1.0 2.0 0.00 0.00 0.00 66 1019.7
20260505214503 58 188 1.0 3.0 0.00 0.00 0.00 66 1019.7
20260505214004 58 194 1.0 3.0 0.00 0.00 0.00 66 1019.8
20260505213503 58 191 1.0 2.0 0.00 0.00 0.00 65 1019.7
20260505213004 58 177 1.0 3.0 0.00 0.00 0.00 65 1019.5
20260505212504 58 224 1.0 3.0 0.00 0.00 0.00 64 1019.8
20260505212004 58 188 1.0 2.0 0.00 0.00 0.00 63 1019.7
20260505211504 58 195 1.0 2.0 0.00 0.00 0.00 63 1019.7
20260505210504 58 213 1.0 3.0 0.00 0.00 0.00 63 1019.6
20260505205503 58 56 1.0 3.0 0.00 0.00 0.00 63 1019.5
20260505204504 58 74 1.0 3.0 0.00 0.00 0.00 63 1019.6
20260505203504 59 181 0.0 1.0 0.00 0.00 0.00 62 1019.5
20260505203003 59 223 1.0 2.0 0.00 0.00 0.00 61 1019.4
20260505202004 60 271 1.0 2.0 0.00 0.00 0.00 61 1019.4
20260505201505 60 263 0.0 2.0 0.00 0.00 0.00 59 1019.1
20260505200504 61 198 1.0 2.0 0.00 0.00 0.00 54 1018.8
20260505200004 61 212 2.0 5.0 0.00 0.00 0.00 54 1018.7
20260505195004 60 213 2.0 5.0 0.00 0.00 0.00 56 1018.8
20260505194504 61 238 1.0 3.0 0.00 0.00 0.00 59 1018.7
20260505193504 61 233 2.0 3.0 0.00 0.00 0.00 60 1018.5
20260505192504 61 269 1.0 3.0 0.00 0.00 0.00 62 1018.4
20260505192004 61 195 1.0 2.0 0.00 0.00 0.00 62 1018.3
20260505191005 62 228 0.0 2.0 0.00 0.00 0.00 58 1017.8
20260505190504 62 225 2.0 6.0 0.00 0.00 0.00 58 1017.8
20260505190004 62 268 2.0 3.0 0.00 0.00 0.00 59 1017.8
20260505185504 62 228 0.0 2.0 0.00 0.00 0.00 58 1017.8
20260505185004 62 235 2.0 3.0 0.00 0.00 0.00 57 1017.8
20260505184504 62 209 2.0 6.0 0.00 0.00 0.00 55 1017.7
20260505183503 62 261 1.0 3.0 0.00 0.00 0.00 57 1017.8
20260505183004 62 225 3.0 5.0 0.00 0.00 0.00 57 1017.6
20260505182504 62 220 1.0 2.0 0.00 0.00 0.00 58 1017.6
20260505181504 62 233 2.0 5.0 0.00 0.00 0.00 57 1017.4
20260505181003 63 226 3.0 6.0 0.00 0.00 0.00 57 1017.5
20260505180503 63 235 3.0 8.0 0.00 0.00 0.00 55 1017.4
20260505180003 63 229 5.0 9.0 0.00 0.00 0.00 56 1017.3
20260505175503 63 231 2.0 6.0 0.00 0.00 0.00 59 1017.4
20260505175004 63 241 3.0 8.0 0.00 0.00 0.00 55 1017.4
20260505174004 64 230 2.0 6.0 0.00 0.00 0.00 56 1017.2
20260505173504 64 239 5.0 10.0 0.00 0.00 0.00 54 1017.1
20260505173004 64 238 3.0 7.0 0.00 0.00 0.00 55 1017.0
20260505172504 64 232 3.0 7.0 0.00 0.00 0.00 55 1016.8
20260505172004 64 240 3.0 12.0 0.00 0.00 0.00 56 1016.9
20260505165504 66 215 6.0 9.0 0.00 0.00 0.00 54 1016.5
20260505165004 66 243 4.0 12.0 0.00 0.00 0.00 54 1016.4
20260505164503 66 199 2.0 8.0 0.00 0.00 0.00 54 1016.3
20260505164003 66 206 2.0 9.0 0.00 0.00 0.00 54 1016.5
20260505163504 66 212 4.0 9.0 0.00 0.00 0.00 54 1016.4
20260505163004 67 217 5.0 10.0 0.00 0.00 0.00 53 1016.4
20260505162504 67 247 3.0 10.0 0.00 0.00 0.00 52 1016.3
20260505162004 67 288 2.0 10.0 0.00 0.00 0.00 52 1016.3
20260505161504 67 248 3.0 9.0 0.00 0.00 0.00 54 1016.3
20260505161006 67 230 4.0 9.0 0.00 0.00 0.00 55 1016.3
20260505160504 67 248 4.0 8.0 0.00 0.00 0.00 54 1016.2
20260505152504 69 248 2.0 8.0 0.00 0.00 0.00 52 1016.1
20260505152004 69 231 5.0 8.0 0.00 0.00 0.00 49 1016.0
20260505151504 68 218 4.0 10.0 0.00 0.00 0.00 49 1016.3
20260505151004 68 224 3.0 8.0 0.00 0.00 0.00 54 1016.3
20260505150504 68 255 5.0 12.0 0.00 0.00 0.00 54 1016.2
20260505140504 69 247 6.0 14.0 0.00 0.00 0.00 53 1016.4
20260505125004 70 213 3.0 10.0 0.00 0.00 0.00 42 1016.7
20260505124003 69 241 2.0 15.0 0.00 0.01 0.00 38 1017.1
20260505123503 70 203 5.0 12.0 0.00 0.02 0.00 36 1017.0
20260505123004 70 194 3.0 8.0 0.00 0.02 0.00 37 1017.0
20260505122503 70 230 6.0 12.0 0.00 0.03 0.00 37 1017.1
20260505122004 69 249 7.0 12.0 0.00 0.05 0.00 36 1017.1
20260505121504 70 216 3.0 7.0 0.00 0.07 0.00 38 1017.0
20260505121004 69 245 4.0 12.0 0.00 0.07 0.00 38 1017.2
20260505120503 68 232 6.0 14.0 0.00 0.07 0.00 37 1017.3
20260505120004 68 210 4.0 9.0 0.00 0.07 0.00 39 1017.2
20260505115503 68 220 3.0 10.0 0.00 0.07 0.00 40 1017.5
20260505115003 69 254 3.0 8.0 0.00 0.07 0.00 39 1017.4
20260505114503 70 267 5.0 8.0 0.00 0.07 0.00 38 1017.1
20260505114004 69 224 2.0 9.0 0.00 0.07 0.00 38 1017.6
20260505113504 69 248 3.0 9.0 0.00 0.07 0.00 38 1017.5
20260505113004 69 246 3.0 10.0 0.00 0.07 0.00 39 1017.5
20260505112503 70 274 2.0 7.0 0.00 0.07 0.00 37 1017.6
20260505112003 70 176 3.0 8.0 0.00 0.07 0.00 36 1017.5
20260505111504 70 225 3.0 14.0 0.00 0.07 0.00 35 1017.5
20260505111003 69 189 5.0 12.0 0.00 0.07 0.00 38 1017.7
20260505110504 68 181 2.0 8.0 0.00 0.07 0.00 40 1018.0
20260505102004 67 226 5.0 10.0 0.00 0.07 0.00 40 1018.5
20260505101504 69 221 6.0 10.0 0.00 0.07 0.00 39 1018.1
20260505101004 68 247 1.0 12.0 0.00 0.07 0.00 40 1018.3
20260505100504 68 206 2.0 12.0 0.00 0.07 0.00 39 1018.1
20260505100004 67 213 2.0 5.0 0.00 0.07 0.00 40 1018.5
20260505095004 67 245 2.0 6.0 0.00 0.07 0.00 40 1018.5
20260505094504 67 260 2.0 3.0 0.00 0.07 0.00 39 1018.4
20260505093503 66 46 3.0 10.0 0.00 0.07 0.00 40 1018.5
20260505093004 65 47 5.0 10.0 0.00 0.07 0.00 42 1018.7
20260505092504 67 34 5.0 8.0 0.00 0.07 0.00 44 1018.5
20260505092004 66 318 2.0 7.0 0.00 0.07 0.00 41 1018.6
20260505091504 67 224 2.0 7.0 0.00 0.07 0.00 41 1018.5
20260505091004 66 230 3.0 6.0 0.00 0.07 0.00 40 1018.5
20260505090504 66 55 2.0 6.0 0.00 0.07 0.00 41 1018.5
20260505090004 65 35 5.0 9.0 0.00 0.07 0.00 42 1018.6
20260505085004 66 239 3.0 8.0 0.00 0.07 0.00 42 1018.6
20260505084503 66 6 5.0 9.0 0.00 0.07 0.00 43 1018.8
20260505083004 65 249 5.0 10.0 0.00 0.07 0.00 44 1018.7
20260505082503 66 55 2.0 5.0 0.00 0.07 0.00 48 1018.9
20260505082004 65 54 0.0 5.0 0.00 0.07 0.00 47 1018.8
20260505081503 65 60 2.0 5.0 0.00 0.07 0.00 47 1018.9
20260505081004 65 3 2.0 5.0 0.00 0.07 0.00 47 1018.9
20260505080504 66 224 1.0 5.0 0.00 0.07 0.00 48 1019.0
20260505080005 65 69 1.0 5.0 0.00 0.07 0.00 48 1018.9
20260505075504 64 248 2.0 2.0 0.00 0.07 0.00 50 1019.0
20260505075004 65 236 2.0 5.0 0.00 0.07 0.00 48 1019.1
20260505074503 64 202 1.0 3.0 0.00 0.07 0.00 50 1019.1
20260505074004 64 232 0.0 3.0 0.00 0.07 0.00 48 1019.1
20260505073504 63 215 1.0 3.0 0.00 0.07 0.00 50 1019.3
20260505073003 62 240 1.0 5.0 0.00 0.07 0.00 51 1019.3
20260505072004 62 232 2.0 5.0 0.00 0.07 0.00 51 1019.4
20260505071004 62 208 4.0 6.0 0.00 0.07 0.00 50 1019.4
20260505070503 62 241 1.0 3.0 0.00 0.07 0.00 55 1019.5
20260505070004 61 238 0.0 2.0 0.00 0.07 0.00 60 1019.5
20260505065504 61 289 1.0 2.0 0.00 0.07 0.00 61 1019.7
20260505065004 60 141 0.0 1.0 0.00 0.07 0.00 60 1019.7
20260505064504 59 130 0.0 1.0 0.00 0.07 0.00 62 1020.0
20260505064003 59 133 0.0 1.0 0.00 0.07 0.00 63 1019.9
20260505063504 57 133 0.0 1.0 0.00 0.07 0.00 66 1020.3
20260505063004 55 142 1.0 3.0 0.00 0.07 0.00 69 1020.4
20260505062504 55 201 1.0 2.0 0.00 0.07 0.00 69 1020.6
20260505062004 54 188 1.0 2.0 0.00 0.07 0.00 70 1020.5
20260505061504 54 235 1.0 2.0 0.00 0.07 0.00 70 1020.6
20260505061004 54 202 1.0 2.0 0.00 0.07 0.00 71 1020.6
20260505060503 54 138 1.0 2.0 0.00 0.07 0.00 70 1020.6
20260505055504 53 215 1.0 2.0 0.00 0.07 0.00 71 1020.9
20260505055004 53 225 1.0 5.0 0.00 0.07 0.00 71 1020.7
20260505054504 53 192 1.0 2.0 0.00 0.07 0.00 71 1020.6
20260505053504 52 233 2.0 3.0 0.00 0.07 0.00 73 1021.0
20260505053004 53 176 0.0 0.0 0.00 0.07 0.00 72 1020.8
20260505052504 52 176 0.0 0.0 0.00 0.07 0.00 72 1021.0
20260505052004 52 174 0.0 1.0 0.00 0.07 0.00 73 1020.9
20260505051505 52 223 1.0 2.0 0.00 0.07 0.00 72 1020.7
20260505051004 52 229 0.0 1.0 0.00 0.07 0.00 73 1020.9
20260505050503 52 229 0.0 2.0 0.00 0.07 0.00 73 1020.8
20260505041504 53 243 1.0 5.0 0.00 0.07 0.00 68 1020.8
20260505041004 54 265 1.0 1.0 0.00 0.07 0.00 67 1020.6
20260505040504 53 265 1.0 1.0 0.00 0.07 0.00 68 1020.8
20260505040005 53 265 1.0 2.0 0.00 0.07 0.00 70 1020.7
20260505035005 52 264 0.0 2.0 0.00 0.07 0.00 74 1021.0
20260505034504 53 263 1.0 2.0 0.00 0.07 0.00 75 1021.0
20260505034004 53 242 0.0 1.0 0.00 0.07 0.00 75 1021.1
20260505033504 53 242 0.0 2.0 0.00 0.07 0.00 75 1020.9
20260505033003 53 274 1.0 1.0 0.00 0.07 0.00 75 1020.9
20260505032504 53 15 0.0 1.0 0.00 0.07 0.00 75 1020.8
20260505032004 53 15 0.0 1.0 0.00 0.07 0.00 75 1020.9
20260505030504 53 15 1.0 1.0 0.00 0.07 0.00 76 1020.9
20260505030004 53 253 0.0 1.0 0.00 0.07 0.00 75 1020.9
20260505025504 53 349 0.0 1.0 0.00 0.07 0.00 75 1021.0
20260505025004 53 1 1.0 2.0 0.00 0.07 0.00 74 1020.9
20260505024503 54 258 0.0 1.0 0.00 0.07 0.00 74 1020.8
20260505024003 54 258 0.0 1.0 0.00 0.07 0.00 74 1020.9
20260505023504 54 258 1.0 2.0 0.00 0.07 0.00 74 1020.8
20260505023004 54 258 2.0 2.0 0.00 0.07 0.00 73 1020.8
20260505022504 53 240 1.0 2.0 0.00 0.07 0.00 76 1020.9
20260505022004 54 219 0.0 1.0 0.00 0.07 0.00 75 1020.9
20260505021503 54 219 0.0 1.0 0.00 0.07 0.00 75 1020.9
20260505021003 54 219 1.0 2.0 0.00 0.07 0.00 74 1020.6
20260505020504 55 207 1.0 3.0 0.00 0.07 0.00 71 1020.7
20260505020004 54 245 0.0 1.0 0.00 0.07 0.00 73 1020.7
20260505015504 54 245 0.0 1.0 0.00 0.07 0.00 72 1020.8
20260505015004 54 256 0.0 1.0 0.00 0.07 0.00 72 1020.8
20260505014004 55 239 1.0 1.0 0.00 0.07 0.00 70 1020.8
20260505013504 54 266 1.0 2.0 0.00 0.07 0.00 73 1020.8
20260505013003 54 339 0.0 0.0 0.00 0.07 0.00 74 1020.8
20260505012504 55 339 1.0 1.0 0.00 0.07 0.00 73 1020.8
20260505012004 55 245 0.0 2.0 0.00 0.07 0.00 73 1020.9
20260505011503 55 218 0.0 3.0 0.00 0.07 0.00 73 1020.9
20260505011004 55 233 1.0 2.0 0.00 0.07 0.00 74 1021.0
20260505010504 54 242 0.0 1.0 0.00 0.07 0.00 74 1021.0
20260505010004 54 242 0.0 2.0 0.00 0.07 0.00 75 1021.2
20260505005504 54 220 1.0 3.0 0.00 0.07 0.00 78 1021.2
20260505005004 55 344 0.0 2.0 0.00 0.07 0.00 78 1021.2
20260505004504 55 245 0.0 1.0 0.00 0.07 0.00 77 1021.3
20260505003504 55 49 1.0 3.0 0.00 0.07 0.00 78 1021.1
20260505003004 55 252 0.0 2.0 0.00 0.07 0.00 79 1021.2
20260505002504 55 296 1.0 2.0 0.00 0.07 0.00 78 1020.9
20260505002005 55 197 1.0 2.0 0.00 0.07 0.00 78 1021.1
20260505001504 56 222 1.0 2.0 0.00 0.07 0.00 79 1021.1
20260505001004 56 239 1.0 1.0 0.00 0.07 0.00 79 1021.0
20260504235504 57 251 1.0 2.0 0.00 0.07 0.00 77 1021.1
20260504235004 57 232 1.0 2.0 0.00 0.07 0.00 75 1021.0
20260504234503 58 214 1.0 2.0 0.00 0.07 0.00 71 1020.9
20260504234004 58 77 2.0 3.0 0.00 0.07 0.00 71 1020.8
20260504233503 58 15 1.0 3.0 0.00 0.07 0.00 69 1020.7
20260504233004 58 244 1.0 2.0 0.00 0.07 0.00 71 1020.7
20260504232504 58 246 2.0 5.0 0.00 0.07 0.00 74 1020.8
20260504231503 59 260 1.0 5.0 0.00 0.07 0.00 73 1020.6
20260504230504 59 243 1.0 3.0 0.00 0.07 0.00 73 1020.7
20260504230004 58 254 1.0 3.0 0.00 0.07 0.00 74 1020.8
20260504225503 59 275 1.0 3.0 0.00 0.07 0.00 74 1020.7
20260504224504 59 246 2.0 3.0 0.00 0.07 0.00 73 1020.8
20260504224004 58 244 2.0 6.0 0.00 0.07 0.00 75 1020.7